Guatemala, Guatemala

9:26 PM CST on September 21, 2018 (GMT -0600)
La Aurora International

Weather History for MGGT - September, 2018

Change the Weather History Date:

Friday, September 14, 2018

  Actual Average Record
Temperature  
Mean Temperature 70 °F -  
Max Temperature 77 °F 73 °F 80 °F (2008)
Min Temperature 64 °F 60 °F 59 °F (2008)
Cooling Degree Days 6    
Growing Degree Days 20 (Base 50)    
Moisture  
Dew Point 63 °F    
Average Humidity 86    
Maximum Humidity 94    
Minimum Humidity 61    
Precipitation  
Precipitation 0.00 in - - ()
Sea Level Pressure  
Sea Level Pressure 30.22 in    
Wind  
Wind Speed 11 mph ()    
Max Wind Speed 94 mph    
Max Gust Speed -    
Visibility 5.3 miles    
Events Rain , Snow , Thunderstorm    
Averages and records for this station are not official NWS values.
T = Trace of Precipitation, MM = Missing Value Source: Averaged Metar Reports

Daily Weather History Graph

Daily Weather History Graph

Search for Another Location

Airport or City:

Astronomy

Sep. 14, 2018 Rise Set
Actual Time 5:50 AM CST 6:04 PM CST
Civil Twilight 5:29 AM CST 6:25 PM CST
Nautical Twilight 5:04 AM CST 6:50 PM CST
Astronomical Twilight 4:39 AM CST 7:15 PM CST
Moon 10:21 AM CST (9/14) 10:11 PM CST (9/14)
Length of Visible Light 12h 56m
Length of Day
12h 13m
Waxing Crescent, 29% of the Moon is Illuminated
Sep 14
Waxing Crescent
Sep 16
First Quarter
Sep 24
Full
Oct 2
Last Quarter
Oct 8
New

Hourly Weather History & Observations

Time (CST) Temp. Dew Point Humidity Pressure Visibility Wind Dir Wind Speed Gust Speed Precip Events Conditions
12:00 AM 66.2 °F 64.4 °F 94% 30.27 in 5.0 mi North 6.9 mph - N/A   Scattered Clouds
1:00 AM 66.2 °F 64.4 °F 94% 30.24 in 5.0 mi North 4.6 mph - N/A   Scattered Clouds
2:00 AM 64.4 °F 62.6 °F 94% 30.24 in 4.3 mi North 6.9 mph - N/A   Overcast
3:00 AM 66.2 °F 62.6 °F 88% 30.21 in 3.7 mi North 6.9 mph - N/A   Mostly Cloudy
4:00 AM 64.4 °F 62.6 °F 94% 30.21 in 4.3 mi North 9.2 mph - N/A   Mostly Cloudy
5:00 AM 64.4 °F 62.6 °F 94% 30.21 in 5.0 mi North 11.5 mph - N/A   Mostly Cloudy
6:00 AM - - %  in 1 mi SE 66.7 mph - - Snow Low Drifting Snow
6:00 AM 64.4 °F 62.6 °F 94% 30.24 in 5.0 mi North 16.1 mph - N/A   Mostly Cloudy
7:00 AM 66.2 °F 62.6 °F 88% 30.24 in 4.3 mi North 16.1 mph - N/A   Mostly Cloudy
8:00 AM 68.0 °F 62.6 °F 83% 30.24 in 6.2 mi North 13.8 mph - N/A   Mostly Cloudy
9:00 AM 68.0 °F 62.6 °F 83% 30.27 in 6.2 mi North 11.5 mph - N/A   Mostly Cloudy
10:00 AM 71.6 °F 62.6 °F 73% 30.24 in 6.2 mi North 9.2 mph - N/A   Mostly Cloudy
11:00 AM 75.2 °F 62.6 °F 65% 30.24 in 6.2 mi North 9.2 mph - N/A   Mostly Cloudy
12:00 PM - - %  in 19 mi SSE 94.4 mph - -   Partly Cloudy
12:00 PM 75.2 °F 62.6 °F 65% 30.21 in 6.2 mi North 13.8 mph - N/A   Scattered Clouds
1:00 PM 77.0 °F 64.4 °F 65% 30.18 in 5.0 mi North 11.5 mph - N/A   Scattered Clouds
1:20 PM - - N/A% - 4.3 mi NNE 16.1 mph - N/A Thunderstorm Thunderstorm
2:00 PM 75.2 °F 60.8 °F 61% 30.18 in 4.3 mi South 4.6 mph - N/A Rain Rain
2:20 PM - - N/A% - 1.9 mi South 9.2 mph - N/A Rain , Thunderstorm Thunderstorms and Rain
2:35 PM - - N/A% - 6.2 mi South 4.6 mph - N/A Rain , Thunderstorm Light Thunderstorms and Rain
3:00 PM 66.2 °F 62.6 °F 88% 30.18 in 4.3 mi SE 11.5 mph - N/A Rain , Thunderstorm Light Thunderstorms and Rain
3:30 PM - - N/A% - 6.2 mi Calm Calm - N/A Rain Light Rain
4:00 PM 68.0 °F 64.4 °F 88% 30.15 in 6.2 mi South 4.6 mph - N/A   Mostly Cloudy
5:00 PM 66.2 °F 64.4 °F 94% 30.15 in 6.2 mi South 4.6 mph - N/A   Mostly Cloudy
6:00 PM 66.2 °F 62.6 °F 88% 30.18 in 6.2 mi SSE 4.6 mph - N/A   Mostly Cloudy
6:40 PM - - N/A% - 6.2 mi South 4.6 mph - N/A   Light Drizzle
7:00 PM 66.2 °F 64.4 °F 94% 30.21 in 6.2 mi SSE 6.9 mph - N/A   Scattered Clouds
7:10 PM - - N/A% - 5.0 mi SSE 4.6 mph - N/A   Light Drizzle
8:00 PM 66.2 °F 64.4 °F 94% 30.21 in 3.7 mi Calm Calm - N/A   Scattered Clouds
9:00 PM 66.2 °F 64.4 °F 94% 30.27 in 3.1 mi Calm Calm - N/A   Mostly Cloudy
10:00 PM 66.2 °F 64.4 °F 94% 30.27 in 3.1 mi Calm Calm - N/A   Mostly Cloudy
11:00 PM 66.2 °F 64.4 °F 94% 30.27 in 3.1 mi Calm Calm - N/A   Mostly Cloudy